Date,TemperatureHighF,TemperatureAvgF,TemperatureLowF,DewpointHighF,DewpointAvgF,DewpointLowF,HumidityHigh,HumidityAvg,HumidityLow,PressureMaxIn,PressureMinIn,WindSpeedMaxMPH,WindSpeedAvgMPH,GustSpeedMaxMPH,PrecipitationSumIn
2013-2-1,44,28,17,33,10,0,85,47,35,30.38,29.94,22,6,35,0.00
2013-2-2,38,29,20,29,18,9,77,63,44,30.35,30.06,14,3,18,0.00
2013-2-3,48,38,27,37,26,14,91,65,38,30.15,29.97,16,7,26,0.04
2013-2-4,54,36,21,28,22,15,89,60,32,30.15,29.94,7,1,10,0.04
2013-2-5,63,49,39,37,31,25,78,50,33,30.00,29.91,18,5,20,0.00
2013-2-6,63,46,31,44,30,22,97,61,28,30.18,30.00,8,2,12,0.00
2013-2-7,63,50,40,44,33,27,77,54,30,30.15,29.94,8,3,11,0.00
2013-2-8,58,48,40,49,36,22,93,68,37,30.27,29.91,15,4,20,0.12
2013-2-9,55,40,25,27,22,19,93,54,30,30.32,30.21,10,3,12,0.04
2013-2-10,73,48,36,47,32,23,89,59,20,30.24,29.97,9,2,10,0.00
2013-2-11,63,54,44,56,42,27,87,68,40,30.12,29.97,18,5,21,0.00
2013-2-12,64,46,34,42,28,23,89,52,29,30.18,29.88,9,2,12,0.00
2013-2-13,51,45,38,47,39,31,90,78,56,29.97,29.67,22,5,22,0.00
2013-2-14,60,43,33,39,32,26,94,67,32,30.06,29.97,13,3,16,0.00
2013-2-15,62,42,29,42,34,27,94,78,35,30.09,30.00,14,3,19,0.00
2013-2-16,42,33,23,35,19,6,93,58,33,30.09,29.97,14,5,22,0.00
2013-2-17,52,30,18,14,8,3,53,41,22,30.24,30.09,13,5,19,0.00
2013-2-18,67,41,21,33,19,7,70,43,25,30.29,29.97,14,4,20,0.00
2013-2-19,59,46,36,43,28,10,91,56,23,30.15,29.91,22,8,31,0.00
2013-2-20,49,35,22,17,12,7,70,40,25,30.21,30.15,9,3,14,0.00
2013-2-21,57,39,20,39,18,9,90,48,24,30.24,30.00,10,3,13,0.00
2013-2-22,65,52,41,49,43,38,91,74,44,30.09,29.97,7,2,10,0.00
2013-2-23,66,53,45,55,46,41,89,79,47,30.03,29.85,7,0,10,0.00
2013-2-24,72,44,30,42,28,17,93,59,20,30.06,29.91,9,1,11,0.00
2013-2-25,62,46,31,31,25,18,87,45,29,30.03,29.82,8,4,12,0.00
2013-2-26,72,54,46,47,38,29,86,58,39,29.82,29.44,21,10,32,0.00
2013-2-27,55,45,42,38,30,27,84,57,40,29.82,29.67,18,11,24,0.00
2013-2-28,47,40,36,30,24,19,75,52,37,29.97,29.79,19,8,23,0.00